Location: Carrer del Canonge
(41.4901°N, 2.2931°E)
Time: 13:41:13
(UTC+00:00)

Cosmos 2082 Rocket - Pass Details

Date: 18 September 2020
Orbit: 834 x 853 km, 71.0° (Epoch: 29 October)

Event Time Altitude Azimuth Distance (km) Brightness Sun altitude
Rises 20:41:06 0° 347° (NNW) 3,390 6.0 -30.3°
Reaches altitude 10° 20:44:12 10° 3° (N) 2,453 4.9 -30.8°
Enters shadow 20:46:30 18° 26° (NNE) 1,963 4.1 -31.1°
